COSMOS 2251 DEB, 35060

Orbit data source: Space-Track

COSMOS 2251 DEB, 35060 is space debris in LEO originally from a launch on Wed, 16 Jun 1993 UTC launched from the Plesetsk Missile And Space Complex (PKMTR). The debris from Iridium 33, an American commercial communications satellite, has been tracked extensively since its accidental collision with the defunct Russian satellite Cosmos 2251 in 2009. This event, occurring at high speed in low Earth orbit (LEO), generated thousands of pieces of space debris, significantly increasing the risk of further collisions. The Iridium 33 debris cloud has impacted space traffic management and orbital debris mitigation strategies, making it a subject of ongoing study in space situational awareness.

Loading next visibility...
Identifier
35060, 1993-036AHP
Orbit
LEO
Country
Flag of CISCIS
Related business
Manufacturer
Unknown
Mission
Spacecraft
Bus & Motor
Unknown
Mass
Unknown
Launch date (UTC)
1993-06-16 (33 years ago)
Launch vehicle
Unknown
Launch site
Plesetsk Missile And Space Complex (PKMTR)
Object type
Payload
Rocket body
Debris
Shape & HBR
Unknown shape, 0.1 m
Radar Cross Section
Small (<0.1 m²)

Expand to show TLE details & history
Last TLE update: 3 days ago

TLE from 3 days ago
0 COSMOS 2251 DEB
1 35060U 93036AHP 26121.35848446  .00000883  00000-0  27707-3 0  9994
2 35060  74.0379 345.6321 0017419  40.9217 319.3243 14.41922274892544
Epoch: 2026-05-01T08:36Z
TLE epoch observation values (Epoch: 2026-05-01T08:36:13.057Z)
Latitude
0.00001°
Longitude
-2.71418°
Altitude
745.361 km
Speed
7.487 km/s
True Right ascension
23h 02m 31s
True Declination
0° 00' 00"
Sunlit
Object was in daylight at epoch
Visualization orbit readout
Latitude
Unknown
Longitude
Unknown
Altitude
Unknown
Speed
Unknown
Apparent Right ascension
Unknown
Apparent Declination
Unknown
Sunlit
N/A
Visualization observer readout
Local Sidereal Time
08:34:31
Azimuth
Unknown
Elevation
Unknown
Doppler factor
Unknown
Orbital elements
Apogee altitude
762.188 km
Perigee altitude
737.356 km
Semi-major axis
7,127.909 km
Eccentricity
0.00174
Inclination
74.0379°
RAAN
345.6321°
Arg. of periapsis
40.9217°
True anomaly
319.19399°
Mean anomaly
319.3243°
Eccentric anomaly
319.25916°
Mean motion
3.60662 °/min
Orbital period
99.82 mins
BSTAR
0.00027707
Loading maneuver chart data...
Computing Atmospheric mass density...
Loading historical data...
Loading historical data...
Loading historical data...
Loading historical data...
Loading historical data...
Loading historical data...
Loading historical data...

Documentation

Showing up to 5 results
|